KINEIS-3C

Last updated on Wed Oct 22 2025 00:02:42 GMT+0000 (Coordinated Universal Time)

1 61220U 24172A 25294.25799571 .00004780 00000+0 76388-3 0 9997 2 61220 98.0305 21.9868 0002057 148.3829 211.7502 14.72300495 57916
UTC large
Height (km)
Speed (km/s)
/
Latitude / Longitude
Inclination (degrees)
Orbital Period (minutes)
Azimuth
Elevation
Range (km)
Doppler Factor

Next 0 passes for location: London (51.5072 / 0.1276)

Sorry there are no passes over London.